Regional Weather Roundup
Issued by NWS Charleston, SC

Current Version | Previous Version | Graphics & Text | Print | Product List | Glossary On
Versions: 1 2 3 4 5 6 7 8 9 10 11 12 13 14 15 16 17 18 19 20 21 22 23 24 25 26 27 28 29 30 31 32 33 34 35 36 37 38 39 40 41 42 43 44 45 46 47 48 49 50
000
ASUS42 KCHS 250011
RWRCHS

REGIONAL WEATHER ROUNDUP
NATIONAL WEATHER SERVICE CHARLESTON SC
700 PM EST FRI FEB 24 2017

NOTE: "FAIR" INDICATES FEW OR NO CLOUDS BELOW 12,000 FEET WITH NO
SIGNIFICANT WEATHER AND/OR OBSTRUCTIONS TO VISIBILITY.

NOT ALL STATIONS ARE QUALITY CONTROLLED. USE DATA WITH CAUTION...
ESPECIALLY DEWPOINT OBSERVATIONS.

SCZ027-030-031-034>040-042>050-250100-
...SOUTHEAST SOUTH CAROLINA...

CITY           SKY/WX    TMP DP  RH WIND       PRES   REMARKS
N CHARLESTON   CLEAR     67  59  75 SE8       29.84S
6HR MIN TEMP:  67; 6HR MAX TEMP:  81;

WATERFRONT PRK   N/A     64  62  93 E6        29.84R
MOUNT PLEASANT FAIR      64  61  88 CALM      29.85S
JOHNS ISLAND   FAIR      64  61  88 CALM      29.86R
PINOPOLIS        N/A     72  61  68 VRB3      29.75F
MONCKS CORNER  FAIR      68  55  64 S5        29.84S
SUMMERVILLE    FAIR      70  59  68 CALM      29.85R
BEAUFORT MCAS  CLEAR     68  64  87 SE8       29.85S
6HR MIN TEMP:  68; 6HR MAX TEMP:  79;

BEAUFORT ARPT  FAIR      64  61  88 CALM      29.85S
HILTON HEAD IS CLEAR     64  63  94 CALM      29.86
WALTERBORO     CLEAR     70  59  68 SE8       29.85R
ALLENDALE      FAIR      70  57  64 CALM      29.81S

...SOUTHERN MIDLANDS AND PEE DEE...

CITY           SKY/WX    TMP DP  RH WIND       PRES   REMARKS
GEORGETOWN     FAIR      61  59  94 SE3       29.87R
KINGSTREE      FAIR      68  55  64 E6        29.83S
ORANGEBURG     CLEAR     70  57  63 E5        29.82S
6HR MIN TEMP:  68; 6HR MAX TEMP:  80;

BARNWELL       FAIR      72  57  60 CALM      29.82S
AIKEN          FAIR      68  54  60 SE5       29.85S
MANNING        MOCLDY    66  57  72 MISG      29.83R
COLUMBIA       PTCLDY    73  54  51 SE7       29.81R
6HR MIN TEMP:  73; 6HR MAX TEMP:  82;

SUMTER         CLEAR     69  56  62 CALM      29.80R
6HR MIN TEMP:  69; 6HR MAX TEMP:  81;

FLORENCE       CLEAR     68  58  70 CALM      29.82S
6HR MIN TEMP:  68; 6HR MAX TEMP:  80;

MYRTLE BEACH   CLEAR     64  59  82 E12       29.86R
N MYRTLE BEACH CLEAR     65  61  87 E6        29.85R
6HR MIN TEMP:  65; 6HR MAX TEMP:  74;


$$

GAZ063-065-086>088-099>101-113>116-118-119-134>141-150-250100-
...SOUTHEAST GEORGIA...

CITY           SKY/WX    TMP DP  RH WIND       PRES   REMARKS
SAVANNAH ARPT  PTCLDY    68  60  75 SE9       29.85R
6HR MIN TEMP:  68; 6HR MAX TEMP:  81;

HUNTER AAF     CLEAR     67  65  95 E8        29.83R
6HR MIN TEMP:  67; 6HR MAX TEMP:  78;

FORT STEWART   CLEAR     69  60  72 CALM      29.82S
6HR MIN TEMP:  69; 6HR MAX TEMP:  80;

STATESBORO     CLEAR     70  62  74 SE5       29.83R
SYLVANIA       CLEAR    N/A N/A N/A CALM      29.83S
CLAXTON        FAIR     N/A N/A N/A E3        29.83S

...CSRA...CENTRAL AND FAR SOUTHEAST GEORGIA...

CITY           SKY/WX    TMP DP  RH WIND       PRES   REMARKS
THOMSON        CLEAR     74  57  55 CALM      29.85S
AUGUSTA-BUSH   CLEAR     72  55  55 S5        29.80S
6HR MIN TEMP:  71; 6HR MAX TEMP:  84;

AUGUSTA-DANIEL CLEAR     75  51  43 S3        29.81F
SWAINSBORO     FAIR      70  59  68 CALM      29.82F
VIDALIA        CLEAR     73  61  64 SE3       29.82S
EASTMAN        FAIR      73  46  38 S3        29.83F
HAZLEHURST     FAIR      70  62  74 CALM      29.81S
ALMA           CLEAR     70  62  76 E6        29.82S
6HR MIN TEMP:  67; 6HR MAX TEMP:  83;

WAYCROSS       PTCLDY    77  66  69 SE8       29.82S
JESUP          FAIR      72  61  68 SE5       29.85R
BAXLEY         MOCLDY    73  64  73 SE5       29.83R
BRUNSWICK      CLEAR     66  64  94 E6        29.87R
SAINT SIMONS   CLEAR     65  62  90 NE7       29.86R
6HR MIN TEMP:  65; 6HR MAX TEMP:  75;


$$

SCZ027-028-034-036>038-045-046-048>050-GAZ119-141-250100-
...LAKE AND SUPPLEMENTAL COASTAL OBSERVATIONS...

STATION/POSITION TIME  TEMP    WIND        PRES    WAVE   SWELL
                       AIR SEA DIR/SP/G            HT/PER HT/PER/DIR
                 (UTC) (F)     (DEG/KT/KT) (MB)    (FT/S) (FT/S/D)
WINYAH BAY       2245   65      90/  5     1010.0
LAKE MURRAY      2320   74     180/  3/  3 1008.8
ACE BASIN NERRS  NOT AVBL
FORT PULASKI     2348   65 63  110/  5/  6 1011.1S
SAPELO ISLAND    2300   69      80/  7     1011.0

$$

ANZ835-935-AMZ111-154-330-350-352-354-370-450-454-472-250100-
...C-MAN AND BUOY OBSERVATIONS...

STATION/POSITION TIME  TEMP    WIND        PRES    WAVE   SWELL
                       AIR SEA DIR/SP/G            HT/PER HT/PER/DIR
                 (UTC) (F)     (DEG/KT/KT) (MB)    (FT/S) (FT/S/D)
BUOY 41004       2250   69 71   30/ 12/ 14 1009.7    7/10   7/120/10
BUOY 41008       2250   64 63   40/  6/  8 1010.2    5/10   5/100/10
FOLLY BEACH CMAN 2300   63      80/  8/  8 1011.4R
CAPERS NEARSHORE 2308   62 60   90/  8/ 12 1010.3S
FRIPP NEARSHORE  2308   63 62  100/  6/  8 1010.3S


STATION/POSITION TIME  TEMP    WIND        PRES    WAVE   SWELL
                       AIR SEA DIR/SP/G            HT/PER HT/PER/DIR
                 (UTC) (F)     (DEG/KT/KT) (MB)    (FT/S) (FT/S/D)
5E ST. MARYS GA  2330      65                N/A     5/11   3/ 90/11
FRYING PAN BUOY  2350   70 72   20/ 10/ 14 1010.3R   6/10   7/130/10
BUOY 41025       2350   72 77  100/ 14/ 17 1011.1R   8/ 9   7/100/ 9
CAPE LOOKOUT NC  2300   66      80/  8/  8 1010.5F
BUOY 41002       2250   69 70   60/  8/ 10 1006.9   10/11  10/100/11
BUOY 41010       NOT AVBL
ST AUGUSTINE FL  0000   66 67  350/  9/  9 1011.7R


$$



USA.gov is the U.S. government's official web portal to all federal, state and local government web resources and services.